Weather History for Albuquerque Double Eagle, NM

Change the Weather History Date:

Friday, August 9, 2013

  Actual Average Record
Temperature  
Mean Temperature 70 °F -  
Max Temperature 85 °F - - ()
Min Temperature 57 °F - - ()
Cooling Degree Days 6    
Growing Degree Days 20 (Base 50)    
Moisture  
Dew Point 45 °F    
Average Humidity 46    
Maximum Humidity 67    
Minimum Humidity 20    
Precipitation  
Precipitation 0.00 in - - ()
Sea Level Pressure  
Sea Level Pressure 30.24 in    
Wind  
Wind Speed 12 mph (North)    
Max Wind Speed 24 mph    
Max Gust Speed 26 mph    
Visibility 10 miles    
Events Thunderstorm    
T = Trace of Precipitation, MM = Missing Value Source: NWS Daily Summary

Daily Weather History Graph

Daily Weather History Graph

Search for Another Location

Airport:

Trip Planner

Search our weather history database for the weather conditions in past years. The results will help you decide how hot, cold, wet, or windy it might be!

Date:

Astronomy

Aug. 09, 2013 Rise Set
Actual Time 6:22 AM MDT 8:02 PM MDT
Civil Twilight 5:55 AM MDT 8:29 PM MDT
Nautical Twilight 5:22 AM MDT 9:02 PM MDT
Astronomical Twilight 4:47 AM MDT 9:36 PM MDT
Moon 9:02 AM MDT (8/9) 9:23 PM MDT (8/9)
Length of Visible Light 14h 33m
Length of Day
13h 39m
Waxing Crescent, 8% of the Moon is Illuminated
Aug 9
Waxing Crescent
Aug 14
First Quarter
Aug 20
Full
Aug 28
Last Quarter
Sep 5
New

Hourly Weather History & Observations

Time (MDT) Temp. Dew Point Humidity Pressure Visibility Wind Dir Wind Speed Gust Speed Precip Events Conditions
12:15 AM 65.7 °F 46.4 °F 50% 30.21 in 10.0 mi NNE 16.1 mph - N/A   Clear
12:35 AM 64.8 °F 46.4 °F 51% 30.21 in 10.0 mi NNE 15.0 mph 21.9 mph N/A   Clear
12:55 AM 64.4 °F 46.2 °F 52% 30.21 in 10.0 mi NNE 16.1 mph - N/A   Clear
1:15 AM 63.5 °F 46.4 °F 54% 30.21 in 10.0 mi NNE 17.3 mph 20.7 mph N/A   Clear
1:35 AM 63.3 °F 46.4 °F 54% 30.21 in 10.0 mi NNE 15.0 mph - N/A   Clear
1:55 AM 62.8 °F 46.4 °F 55% 30.21 in 10.0 mi NNE 15.0 mph - N/A   Clear
2:15 AM 62.6 °F 45.9 °F 54% 30.21 in 10.0 mi North 13.8 mph - N/A   Clear
2:35 AM 62.1 °F 45.7 °F 55% 30.21 in 10.0 mi North 13.8 mph - N/A   Clear
2:55 AM 61.7 °F 45.7 °F 56% 30.21 in 10.0 mi North 12.7 mph - N/A   Clear
3:15 AM 61.2 °F 45.5 °F 56% 30.21 in 10.0 mi North 13.8 mph - N/A   Clear
3:35 AM 60.6 °F 45.5 °F 57% 30.21 in 10.0 mi North 15.0 mph - N/A   Clear
3:55 AM 60.4 °F 45.5 °F 58% 30.21 in 10.0 mi North 12.7 mph - N/A   Clear
4:15 AM 60.4 °F 45.7 °F 58% 30.21 in 10.0 mi NNE 13.8 mph - N/A   Clear
4:35 AM 60.3 °F 46.0 °F 59% 30.22 in 10.0 mi NNE 11.5 mph - N/A   Clear
4:55 AM 59.9 °F 46.0 °F 60% 30.22 in 10.0 mi NNE 10.4 mph - N/A   Clear
5:15 AM 59.4 °F 46.4 °F 62% 30.23 in 10.0 mi NNE 8.1 mph - N/A   Clear
5:35 AM 59.0 °F 46.8 °F 64% 30.23 in 10.0 mi NNE 6.9 mph - N/A   Clear
5:50 AM 59.0 °F 46.4 °F 63% 30.23 in 10.0 mi North 9.2 mph - N/A   Clear
6:50 AM 57.2 °F 46.4 °F 67% 30.24 in 10.0 mi North 9.2 mph - N/A   Partly Cloudy
7:50 AM 62.6 °F 48.2 °F 59% 30.27 in 10.0 mi North 9.2 mph - N/A   Partly Cloudy
8:50 AM 66.2 °F 48.2 °F 52% 30.28 in 10.0 mi NNE 6.9 mph - N/A   Partly Cloudy
9:50 AM 71.6 °F 48.2 °F 43% 30.28 in 10.0 mi NE 6.9 mph - N/A   Partly Cloudy
10:50 AM 73.4 °F 48.2 °F 41% 30.29 in 10.0 mi NE 4.6 mph - N/A   Scattered Clouds
11:50 AM 75.2 °F 46.4 °F 36% 30.28 in 10.0 mi Variable 5.8 mph - N/A   Scattered Clouds
12:50 PM 78.8 °F 46.4 °F 32% 30.27 in 10.0 mi Variable 5.8 mph - N/A   Scattered Clouds
1:50 PM 82.4 °F 44.6 °F 26% 30.24 in 10.0 mi Variable 5.8 mph - N/A   Scattered Clouds
2:50 PM 82.4 °F 41.0 °F 23% 30.23 in 10.0 mi SE 6.9 mph - N/A   Mostly Cloudy
3:50 PM 82.4 °F 41.0 °F 23% 30.22 in 10.0 mi ESE 6.9 mph - N/A   Mostly Cloudy
4:50 PM 82.4 °F 41.0 °F 23% 30.21 in 10.0 mi Calm Calm - N/A   Mostly Cloudy
5:50 PM 84.2 °F 39.2 °F 20% 30.20 in 10.0 mi SW 9.2 mph 18.4 mph N/A   Mostly Cloudy
6:50 PM 80.6 °F 37.4 °F 21% 30.21 in 10.0 mi SW 24.2 mph 26.5 mph N/A   Mostly Cloudy
7:50 PM 75.2 °F 39.2 °F 27% 30.22 in 10.0 mi West 16.1 mph 24.2 mph N/A   Mostly Cloudy
10:15 PM 71.1 °F 45.1 °F 39% 30.27 in 10.0 mi South 5.8 mph - N/A   Scattered Clouds
10:35 PM 73.8 °F 39.4 °F 29% 30.28 in 10.0 mi WSW 12.7 mph - N/A   Scattered Clouds
10:55 PM 71.4 °F 44.6 °F 38% 30.30 in 10.0 mi WSW 15.0 mph 19.6 mph N/A   Mostly Cloudy
11:15 PM 70.3 °F 45.9 °F 41% 30.31 in 10.0 mi WSW 8.1 mph - N/A   Overcast
11:35 PM 69.6 °F 45.5 °F 42% 30.31 in 10.0 mi West 8.1 mph - N/A Thunderstorm Scattered Clouds
11:55 PM 67.8 °F 45.5 °F 45% 30.30 in 10.0 mi SW 5.8 mph - N/A   Scattered Clouds